Regional Weather Roundup
Issued by NWS

Home | Current Version | Previous Version | Text Only | Print | Product List | Glossary Off
Versions: 1 2 3 4 5 6 7 8 9 10 11 12 13 14 15 16 17 18 19 20 21 22 23 24 25 26 27 28 29 30 31 32 33 34 35 36 37 38 39 40 41 42 43 44 45 46 47 48 49 50

000
ASUS43 KOAX 290402
RWRNE

WEATHER ROUNDUP FOR NEBRASKA
NATIONAL WEATHER SERVICE OMAHA NE
1000 PM CST WED JAN 28 2015

NOTES: SATELLITE DATA IS BEING USED TO AUGMENT CLOUD COVER ABOVE
       12000 FEET.
       "FAIR" INDICATES FEW OR NO CLOUDS BELOW 12,000 FEET WITH NO
       SIGNIFICANT WEATHER AND/OR OBSTRUCTIONS TO VISIBILITY.

  * THESE STATIONS DO NOT REPORT WEATHER SUCH AS RAIN...SNOW OR FOG.

NEZ001>004-019>022-054>056-290500-
NEBRASKA PANHANDLE

CITY           SKY/WX    TMP DP  RH WIND       PRES   REMARKS
SCOTTSBLUFF    CLOUDY    42  30  62 NW9       30.24R
ALLIANCE       PTCLDY    38  29  70 NW14      30.21R WCI  30
CHADRON        CLEAR     35  29  78 N8        30.27R WCI  29
SIDNEY         MOCLDY    38  33  82 NW13      30.23R WCI  30
$$

NEZ057>060-069>072-079>082-290500-
SOUTHWEST NEBRASKA

CITY           SKY/WX    TMP DP  RH WIND       PRES   REMARKS
NORTH PLATTE   CLEAR     40  33  76 NW13      30.11R WCI  32
IMPERIAL       CLEAR     43  32  65 NW15      30.16R
LEXINGTON      CLEAR     43  33  68 W15       30.05R
MCCOOK         CLEAR     45  32  60 W14       30.10R
$$

NEZ005>010-023>029-035>040-094-290500-
NORTH CENTRAL NEBRASKA

CITY           SKY/WX    TMP DP  RH WIND       PRES   REMARKS
VALENTINE      CLOUDY    36  29  75 N24G38    30.16R WCI  24
BROKEN BOW     CLEAR     47  32  56 N25G32    30.04R
ORD            PTCLDY    44  33  65 N21G33    30.01R
$$

NEZ041-046>049-061>064-073>077-083>087-290500-
SOUTH CENTRAL NEBRASKA

CITY           SKY/WX    TMP DP  RH WIND       PRES   REMARKS
GRAND ISLAND   CLOUDY    52  33  48 N30G41    29.96R
AURORA         CLOUDY    51  33  48 N30G37    29.95R
HASTINGS       MOCLDY    52  33  48 N24G35    29.96R
KEARNEY *      PTCLDY    52  28  40 NW18      29.99R
YORK           MOCLDY    50  34  53 N23G29    29.92R
$$

NEZ011>018-030>034-042>045-290500-
NORTHEAST NEBRASKA

CITY           SKY/WX    TMP DP  RH WIND       PRES   REMARKS
NORFOLK        MOCLDY    44  36  73 N31G39    29.94R
ALBION         CLOUDY    46  34  62 N25G35    29.95R
BLAIR          CLOUDY    46  38  74 NW28G39   29.85R
COLUMBUS *     CLOUDY    46  32  57 NW25G38   29.93R
FREMONT        CLOUDY    47  38  72 NW30      29.90R
TEKAMAH        CLOUDY    45  37  73 NW30G43   29.87R
$$

NEZ050>053-065>068-078-088>093-290500-
SOUTHEAST NEBRASKA

CITY           SKY/WX    TMP DP  RH WIND       PRES   REMARKS
LINCOLN        PTCLDY    52  35  52 NW20G28   29.90R
OMAHA EPPLEY   MOCLDY    45  37  73 N24G37    29.84R
FALLS CITY     CLEAR     52  36  54 NW21G28   29.81R
NEBRASKA CITY  PTCLDY    50  33  52 NW23G32   29.83R
$$

NEZ044-045-051>053-067-290500-
OMAHA AREA

CITY           SKY/WX    TMP DP  RH WIND       PRES   REMARKS
OMAHA EPPLEY   MOCLDY    45  37  73 N24G37    29.84R
BLAIR          CLOUDY    46  38  74 NW28G39   29.85R
FREMONT        CLOUDY    47  38  72 NW30      29.90R
OFFUTT AFB     CLOUDY    47  38  71 NW25G33   29.84R
WAHOO          FAIR      48  36  61 NW24G37   29.88R
$$


USA.gov is the U.S. government's official web portal to all federal, state and local government web resources and services.